loading
|

DIAMANT DEB, 2685

Orbit data source: Space-Track

DIAMANT DEB, 2685 is space debris in LEO originally from a launch on Wed, 15 Feb 1967 UTC launched from the Hamma Guira Space Track Range (HGSTR). Debris objects in space refer to the collection of defunct objects orbiting the Earth. Examples of debris include non-operational satellites, rocket bodies, and fragments generated from explosions, collisions, or faulty payload assembly.

Loading next visibility...
Loading greatness...
DIAMANT DEB details
Identifier
2685, 1967-014F
Orbit
LEO
Last TLE update5 hours ago
Origin
Flag of FRCNES (FR)
ManufacturerUnknown
MissionSpacecraft
Bus & MotorUnknown bus, Unknown motor
MassUnknown
Launch date (UTC)
1967-02-15 (58 years ago)
Launch vehicleUnknown
Launch site
Hamma Guira Space Track Range (HGSTR)
Object type
Payload
Rocket body
Debris
Shape & HBRUnknown
Radar Cross SectionSmall (<0.1 m²)

Expand to show TLE details & history

TLE from 5 hours ago
0 DIAMANT DEB
1  2685U 67014F   24278.80203749  .00045659  00000-0  84755-2 0  9995
2  2685  38.9324  89.3602 0379844 191.7486 167.4197 14.27146678878982
Epoch: 2024-10-04T19:14Z
Definitive object data (Epoch: 2024-10-04T19:14:56.039Z)
Latitude-0.00001°
Longitude146.65921°
Altitude1,067.214 km
Speed7.183 km/s
True Right ascension05h 57m 26s
True Declination0° 00' 00"
Sunlit
Object was in daylight at TLE epoch
Predictive object data (real-time)
Latitude8.76155°
Longitude156.50623°
Altitude1,072.444 km
Speed7.178 km/s
Apparent Right ascension06h 29m 10s
Apparent Declination-13° 30' 13"
Sunlit
Object is in daylight
Predictive observer data (real-time)
Local Sidereal Time18:17:39
Azimuth353.723° N
Elevation-63.466°
Doppler factor1
Orbital elements
Apogee1,076.597 km
Perigee530.994 km
Semi-major axis7,181.932 km
Eccentricity0.0379844
Inclination38.9324°
RAAN89.3602°
Arg. of periapsis191.7486°
True anomaly168.32566°
Mean anomaly167.4197°
Eccentric anomaly167.87677°
Mean motion3.566 °/min
BSTAR0.0084755
Period100.95 mins
No data available

DIAMANT DEB Visibility forecast

Observer location: 39.9160978°, -105.1181434

DIAMANT DEB is not visible in the next 10 days
Span
Click to sort rows by Start time (UTC) header in descending order
Start Az.
Max El. time (UTC)
Max El. Az.
Max El.
End time (UTC)
End Az.